{"data":{"norad_id":26356,"intl_designator":"2000-024A","name":"USA 149 (DSP 20)","alt_names":[],"object_type":"PAYLOAD","status":"ACTIVE","operator":null,"country":"US","launch_date":"2000-05-08","launch_site_code":"AFETR","launch_vehicle":null,"mission":null,"orbit_class":"UNKNOWN","rcs_meters":null,"size_class":null,"mass_kg":null,"dimensions":null,"purposes":["comms"],"wikipedia_slug":null,"has_3d_model":false,"image_url":null,"decayed_at":null,"tle_current":{"epoch":"2026-09-18T13:19:28.415136Z","epoch_age_seconds":178825,"freshness":"STALE","line1":"1 26356U 00024A   26261.55518999 -.00000249  00000+0  00000+0 0  9990","line2":"2 26356  13.2681  11.2449 0012013  40.5039 265.0551  0.99196463 33854","mean_motion":0.99196463,"eccentricity":0.0012013,"inclination_deg":13.2681,"raan_deg":11.2449,"arg_perigee_deg":40.5039,"mean_anomaly_deg":265.0551,"bstar":0,"rev_number":3385,"period_min":1451.6646626806,"perigee_km":36039.748787303,"apogee_km":36141.784575288,"semimajor_km":42468.903681295,"source":"CELESTRAK","updated_at":"2026-09-20T09:00:35.117758Z"}}}